[[{"header":{"parameterUnit":"m.s-1","parameterCategory":1,"la1":30.2991,"la2":30.254,"lo1":-89.0895,"lo2":-89.0444,"dy":0.0017,"dx":0.0017,"nx":28,"ny":28,"refTime":"2024-12-01T03:00:00:Z","depth":0,"parameterNumber":2,"parameterNumberName":"U-component_of_WINDS"},"data":[0,0,0,0,0,0,0,0,0,0,0,0,0,0,0,0,0,0,0,0,0,0,0,0,0,0,0,0,0,0,0,0,0,0,0,0,0,0,0,0,0,0,0,0,0,0,0,0,0,0,0,0,0,0,0,0,0,0,-1.0351,-1.0351,0,-1.0312,-1.0312,-1.0311,-1.0221,-1.0219,-1.0217,-1.0215,-1.0178,-1.0179,-1.018,0,0,0,0,0,0,0,0,0,0,0,0,0,-1.0351,-1.0351,-1.0351,-1.0351,-1.035,-1.0312,-1.0312,-1.0311,-1.0221,-1.0219,-1.0216,-1.0214,-1.0178,-1.0179,-1.018,0,0,0,0,0,0,0,0,0,0,0,0,0,-1.0335,-1.0351,-1.0351,-1.0301,-1.0296,-1.0312,-1.0312,-1.0311,-1.0221,-1.0219,-1.0216,-1.0213,-1.0178,-1.0179,-1.018,-1.0244,0,0,-1.0184,-1.0184,0,0,0,0,0,0,0,0,-1.0336,-1.0335,-1.0309,-1.0304,-1.0299,-1.0268,-1.0298,-1.0289,-1.0222,-1.025,-1.0215,-1.0212,-1.0211,-1.0209,-1.0208,-1.0242,-1.0241,-1.0184,-1.0185,-1.0185,-1.0185,0,0,0,0,0,0,0,-1.0337,-1.0337,-1.0336,-1.0308,-1.0302,-1.0281,-1.0275,-1.0296,-1.0247,-1.0247,-1.024,-1.0237,-1.0208,-1.0207,-1.0207,-1.024,-1.0184,-1.0185,-1.0186,-1.0186,-1.0326,-1.0329,0,0,0,0,0,0,-1.0345,-1.0338,-1.0337,-1.0335,-1.0311,-1.0283,-1.0277,-1.0281,-1.0246,-1.0238,-1.0239,-1.0233,-1.0207,-1.0205,-1.0205,-1.0278,-1.0185,-1.0186,-1.0187,-1.0323,-1.0327,-1.033,0,0,0,0,0,0,-1.0346,-1.0346,-1.0339,-1.0335,-1.0332,-1.0286,-1.0291,-1.0282,-1.0281,-1.024,-1.0231,-1.0248,-1.0204,-1.0203,-1.0235,-1.0276,-1.0187,-1.0188,-1.0319,-1.0324,-1.0328,-1.0425,0,0,0,0,0,0,-1.0346,-1.0347,-1.037,-1.0336,-1.0333,-1.0369,-1.0294,-1.0283,-1.0283,-1.0274,-1.0246,-1.0239,-1.0202,-1.0234,-1.0236,-1.0276,-1.0189,-1.0316,-1.0322,-1.0327,-1.0418,-1.0432,-1.0445,0,0,0,0,0,-1.0346,-1.0399,-1.0372,-1.0372,-1.036,-1.0371,-1.037,-1.0325,-1.0287,-1.031,-1.0284,-1.0239,-1.0271,-1.0238,-1.024,-1.028,-1.0313,-1.032,-1.0326,-1.0412,-1.043,-1.0444,0,0,0,0,0,0,-1.0441,-1.0394,-1.0363,-1.0406,-1.0393,-1.0356,-1.0384,-1.0345,-1.0344,-1.0336,-1.0282,-1.0277,-1.0316,-1.0301,-1.0265,-1.0341,-1.0285,-1.0292,-1.0349,-1.0365,-1.0378,-1.0382,-1.019,0,0,0,0,0,-1.0466,-1.0478,-1.0437,-1.0479,-1.0474,-1.0431,-1.0434,-1.0401,-1.0386,-1.038,-1.0356,-1.0345,-1.0352,-1.0357,-1.0362,-1.0415,-1.0408,-1.0444,-1.0457,-1.0468,-1.0476,-1.0504,-1.052,-1.0352,-1.0352,-1.0352,0,0,-1.052,-1.0496,-1.0506,-1.0497,-1.0484,-1.0498,-1.0427,-1.0445,-1.0455,-1.0383,-1.0412,-1.0394,-1.0377,-1.042,-1.0438,-1.0409,-1.0521,-1.0477,-1.0486,-1.0488,-1.0513,-1.0529,-1.0543,-1.0357,-1.0356,-1.0355,0,0,-1.0624,-1.0607,-1.064,-1.0628,-1.0608,-1.0578,-1.0587,-1.0555,-1.054,-1.0568,-1.0514,-1.0526,-1.054,-1.053,-1.0527,-1.0629,-1.0588,-1.0632,-1.0701,-1.0729,-1.0743,-1.0754,-1.0791,-1.0805,-1.0639,-1.0639,-1.0639,0,-1.0694,-1.0712,-1.0663,-1.0684,-1.0683,-1.0617,-1.0651,-1.0642,-1.0625,-1.0625,-1.0593,-1.0608,-1.0592,-1.0633,-1.0657,-1.0657,-1.0666,-1.0635,-1.0744,-1.0755,-1.0765,-1.0801,-1.0815,-1.0645,-1.0644,-1.0643,-1.0643,0,-1.0799,-1.0813,-1.0842,-1.0827,-1.0828,-1.0856,-1.0812,-1.0819,-1.0786,-1.0761,-1.079,-1.0769,-1.0768,-1.0775,-1.0743,-1.0811,-1.0794,-1.0754,-1.0697,-1.0788,-1.082,-1.0833,-1.0653,-1.0651,-1.0649,-1.0648,0,0,-1.0963,-1.0918,-1.093,-1.0923,-1.0896,-1.0906,-1.0931,-1.0929,-1.0937,-1.0928,-1.0949,-1.0961,-1.0924,-1.0921,-1.0888,-1.0912,-1.0995,-1.0869,-1.0868,-1.0894,-1.107,-1.1102,-1.1118,-1.0968,-1.097,-1.0972,-1.1072,0,-1.1062,-1.1101,-1.1058,-1.1107,-1.112,-1.1058,-1.108,-1.1067,-1.1044,-1.1052,-1.1027,-1.1037,-1.0987,-1.0984,-1.1006,-1.0981,-1.103,-1.0973,-1.0988,-1.0989,-1.0995,-1.1134,-1.1167,-1.1263,-1.1084,-1.1086,-1.1088,0,-1.1182,-1.1178,-1.1229,-1.1199,-1.1202,-1.1223,-1.1218,-1.1226,-1.121,-1.1192,-1.1189,-1.1148,-1.1172,-1.1116,-1.1149,-1.1111,-1.1115,-1.1104,-1.1106,-1.1107,-1.1045,-1.114,-1.1292,-1.1307,-1.1107,-1.1105,-1.1104,0,-1.1298,-1.1304,-1.1335,-1.1331,-1.1296,-1.1313,-1.1299,-1.128,-1.1282,-1.1278,-1.1279,-1.1279,-1.1279,-1.128,-1.1241,-1.1203,-1.128,-1.122,-1.1266,-1.1267,-1.1286,-1.1285,-1.1442,-1.1287,-1.1287,-1.1286,-1.1286,0,-1.1414,-1.1448,-1.1387,-1.1406,-1.1443,-1.1393,-1.143,-1.1411,-1.1394,-1.141,-1.1356,-1.1372,-1.1319,-1.133,-1.13,-1.1333,-1.1333,-1.132,-1.1311,-1.1325,-1.1327,-1.1327,-1.132,-1.129,-1.1289,-1.1288,-1.1288,0,-1.1549,-1.151,-1.154,-1.1505,-1.1497,-1.1525,-1.1496,-1.1513,-1.1486,-1.1506,-1.1508,-1.1467,-1.1477,-1.1438,-1.1441,-1.1421,-1.147,-1.145,-1.1476,-1.147,-1.1519,-1.1516,-1.1682,-1.1702,-1.1534,-1.1535,-1.1537,0,-1.1626,-1.165,-1.1618,-1.1624,-1.1613,-1.1623,-1.1625,-1.1577,-1.1581,-1.1564,-1.1584,-1.1589,-1.1591,-1.161,-1.1581,-1.1583,-1.1564,-1.1622,-1.1564,-1.1577,-1.1566,-1.1566,-1.1569,-1.1635,-1.1637,-1.1639,-1.164,0,-1.1767,-1.1746,-1.175,-1.1747,-1.175,-1.1746,-1.1738,-1.1746,-1.1694,-1.1702,-1.1711,-1.1712,-1.1715,-1.1722,-1.1718,-1.1706,-1.1665,-1.1658,-1.1669,-1.1684,-1.1698,-1.1692,-1.151,-1.1655,-1.1653,-1.1652,-1.1652,-1.1651,-1.1876,-1.1895,-1.1875,-1.1881,-1.187,-1.1864,-1.1879,-1.1854,-1.186,-1.1858,-1.1829,-1.1844,-1.1828,-1.1819,-1.1811,-1.1823,-1.1796,-1.1812,-1.1816,-1.1821,-1.183,-1.1695,-1.1822,-1.1821,-1.1821,-1.1821,-1.182,0,-1.2015,-1.1999,-1.2005,-1.1996,-1.2001,-1.196,-1.195,-1.1957,-1.1971,-1.1959,-1.1961,-1.1972,-1.1978,-1.195,-1.1952,-1.1967,-1.1949,-1.197,-1.1969,-1.1967,-1.1853,-1.1844,-1.1985,-1.1985,-1.1985,-1.1985,-1.1985,-1.1985,-1.2089,-1.2119,-1.2096,-1.2121,-1.2105,-1.2118,-1.2116,-1.211,-1.2101,-1.2115,-1.2119,-1.21,-1.2082,-1.2083,-1.2087,-1.2078,-1.2082,-1.211,-1.2096,-1.1991,-1.1975,-1.1959,-1.195,-1.2111,-1.2111,-1.2208,-1.2209,-1.221]},{"header":{"parameterUnit":"m.s-1","parameterCategory":1,"la1":30.2991,"la2":30.254,"lo1":-89.0895,"lo2":-89.0444,"dy":0.0017,"dx":0.0017,"nx":28,"ny":28,"refTime":"2024-12-01T03:00:00:Z","depth":0,"parameterNumber":3,"parameterNumberName":"V-component_of_WINDS"},"data":[0,0,0,0,0,0,0,0,0,0,0,0,0,0,0,0,0,0,0,0,0,0,0,0,0,0,0,0,0,0,0,0,0,0,0,0,0,0,0,0,0,0,0,0,0,0,0,0,0,0,0,0,0,0,0,0,0,0,-0.6252,-0.6252,0,-0.6268,-0.6268,-0.6268,-0.6248,-0.6248,-0.6247,-0.6246,-0.6262,-0.6263,-0.6265,0,0,0,0,0,0,0,0,0,0,0,0,0,-0.6206,-0.6207,-0.6252,-0.6252,-0.6253,-0.6268,-0.6268,-0.6268,-0.6248,-0.6247,-0.6247,-0.6246,-0.6262,-0.6263,-0.6265,0,0,0,0,0,0,0,0,0,0,0,0,0,-0.6224,-0.6208,-0.6252,-0.6245,-0.6244,-0.6267,-0.6268,-0.6268,-0.6249,-0.6247,-0.6246,-0.6245,-0.6262,-0.6263,-0.6265,-0.6297,0,0,-0.627,-0.6271,0,0,0,0,0,0,0,0,-0.6223,-0.6226,-0.6246,-0.6245,-0.6245,-0.6255,-0.6257,-0.6278,-0.6249,-0.6247,-0.6246,-0.6245,-0.6261,-0.6262,-0.6268,-0.6297,-0.6298,-0.627,-0.6271,-0.6272,-0.6272,0,0,0,0,0,0,0,-0.6222,-0.6225,-0.6258,-0.6246,-0.6245,-0.6241,-0.6242,-0.6261,-0.626,-0.6247,-0.6246,-0.6248,-0.626,-0.6266,-0.6268,-0.6298,-0.627,-0.6271,-0.6273,-0.6273,-0.6355,-0.6356,0,0,0,0,0,0,-0.6222,-0.6224,-0.6258,-0.6259,-0.6231,-0.6242,-0.6244,-0.6253,-0.6259,-0.6259,-0.6249,-0.6247,-0.6264,-0.6266,-0.6268,-0.6307,-0.6272,-0.6273,-0.6274,-0.6354,-0.6355,-0.6356,0,0,0,0,0,0,-0.6221,-0.6225,-0.6257,-0.6241,-0.6245,-0.6244,-0.6254,-0.6254,-0.6259,-0.6261,-0.626,-0.6255,-0.6263,-0.6266,-0.629,-0.6307,-0.6274,-0.6276,-0.6352,-0.6354,-0.6356,-0.6383,0,0,0,0,0,0,-0.622,-0.6225,-0.6237,-0.6242,-0.6246,-0.6278,-0.6255,-0.6255,-0.6262,-0.626,-0.6266,-0.6266,-0.6263,-0.6287,-0.6291,-0.6309,-0.6277,-0.6351,-0.6353,-0.6355,-0.638,-0.6385,-0.6389,0,0,0,0,0,-0.6218,-0.6244,-0.6238,-0.6242,-0.6261,-0.6279,-0.6282,-0.6277,-0.6264,-0.6276,-0.6277,-0.6266,-0.6304,-0.629,-0.6294,-0.6312,-0.635,-0.6352,-0.6355,-0.6378,-0.6384,-0.6389,0,0,0,0,0,0,-0.6242,-0.6244,-0.6237,-0.6266,-0.6272,-0.6276,-0.6291,-0.6283,-0.6294,-0.6291,-0.6284,-0.6286,-0.6311,-0.6314,-0.6298,-0.6343,-0.6325,-0.6328,-0.6341,-0.6347,-0.6351,-0.635,-0.6278,0,0,0,0,0,-0.625,-0.6265,-0.6266,-0.6291,-0.6295,-0.6292,-0.63,-0.6295,-0.6302,-0.6305,-0.6308,-0.6315,-0.6328,-0.6337,-0.635,-0.638,-0.6381,-0.6394,-0.6399,-0.6403,-0.6406,-0.6423,-0.6429,-0.6365,-0.6365,-0.6365,0,0,-0.6268,-0.6271,-0.6281,-0.6296,-0.63,-0.6316,-0.6295,-0.6312,-0.6324,-0.6308,-0.6331,-0.6332,-0.634,-0.6367,-0.6379,-0.637,-0.6424,-0.6406,-0.6409,-0.6411,-0.6426,-0.6432,-0.6438,-0.6367,-0.6366,-0.6366,0,0,-0.6308,-0.6312,-0.6333,-0.6338,-0.6345,-0.6343,-0.6348,-0.6353,-0.6354,-0.6376,-0.6365,-0.6378,-0.6401,-0.6407,-0.6413,-0.6455,-0.6446,-0.6459,-0.6483,-0.6499,-0.6504,-0.6509,-0.6524,-0.653,-0.6462,-0.6462,-0.6462,0,-0.633,-0.6352,-0.6345,-0.6363,-0.637,-0.6356,-0.6377,-0.6382,-0.6393,-0.6399,-0.6388,-0.6417,-0.6421,-0.6449,-0.6459,-0.6464,-0.647,-0.6459,-0.6504,-0.6508,-0.6512,-0.6527,-0.6533,-0.6464,-0.6464,-0.6463,-0.6463,0,-0.6378,-0.6394,-0.641,-0.6421,-0.643,-0.645,-0.6446,-0.6455,-0.6449,-0.6449,-0.6472,-0.6475,-0.6489,-0.6495,-0.6489,-0.6522,-0.6517,-0.6505,-0.6487,-0.652,-0.6534,-0.654,-0.6466,-0.6465,-0.6465,-0.6465,0,0,-0.6436,-0.6441,-0.6448,-0.6452,-0.6459,-0.6471,-0.649,-0.6502,-0.6511,-0.6518,-0.6534,-0.6554,-0.6543,-0.655,-0.6545,-0.6559,-0.6592,-0.6545,-0.6546,-0.6555,-0.663,-0.664,-0.6646,-0.6586,-0.6587,-0.6588,-0.663,0,-0.6477,-0.651,-0.6503,-0.6535,-0.655,-0.6536,-0.6552,-0.6558,-0.6558,-0.657,-0.6569,-0.6584,-0.6568,-0.6572,-0.6585,-0.6586,-0.6608,-0.6582,-0.6601,-0.6602,-0.6601,-0.6653,-0.6664,-0.6703,-0.6635,-0.6636,-0.6637,0,-0.653,-0.6539,-0.6573,-0.6577,-0.6583,-0.6598,-0.6608,-0.662,-0.6626,-0.6625,-0.6632,-0.6624,-0.6643,-0.6623,-0.6649,-0.6632,-0.6639,-0.664,-0.6641,-0.6644,-0.6622,-0.6659,-0.6716,-0.6722,-0.6645,-0.6644,-0.6644,0,-0.6569,-0.659,-0.6613,-0.6617,-0.6622,-0.6633,-0.6636,-0.664,-0.6648,-0.6657,-0.6663,-0.6674,-0.668,-0.6689,-0.6685,-0.667,-0.6712,-0.6691,-0.6712,-0.6712,-0.6722,-0.6722,-0.6783,-0.6725,-0.6725,-0.6725,-0.6725,0,-0.6617,-0.6638,-0.6631,-0.6645,-0.6669,-0.6661,-0.6684,-0.6685,-0.6689,-0.6703,-0.6691,-0.6705,-0.6697,-0.671,-0.6706,-0.6729,-0.6732,-0.6731,-0.6731,-0.6733,-0.6734,-0.6739,-0.6737,-0.6726,-0.6726,-0.6726,-0.6725,0,-0.6666,-0.6662,-0.6686,-0.6688,-0.6689,-0.6706,-0.6708,-0.6722,-0.672,-0.6738,-0.6741,-0.6739,-0.6753,-0.6749,-0.6765,-0.6762,-0.6791,-0.6786,-0.6789,-0.6788,-0.6809,-0.6808,-0.6877,-0.6886,-0.6821,-0.6822,-0.6822,0,-0.6697,-0.6713,-0.6717,-0.6726,-0.6729,-0.6743,-0.6751,-0.6743,-0.6752,-0.6759,-0.6772,-0.6785,-0.6796,-0.6819,-0.6819,-0.6831,-0.6827,-0.685,-0.6828,-0.6831,-0.6828,-0.6828,-0.683,-0.6855,-0.6855,-0.6856,-0.6856,0,-0.6754,-0.6751,-0.6762,-0.6773,-0.6783,-0.6791,-0.6798,-0.6806,-0.6798,-0.6809,-0.6823,-0.6831,-0.6847,-0.6861,-0.6871,-0.6874,-0.6865,-0.6863,-0.6868,-0.6872,-0.6874,-0.6874,-0.6802,-0.6862,-0.6861,-0.6861,-0.6861,-0.686,-0.6796,-0.6809,-0.6814,-0.6827,-0.6832,-0.6838,-0.6851,-0.685,-0.6862,-0.6875,-0.6869,-0.6886,-0.6891,-0.6905,-0.6908,-0.6922,-0.6913,-0.6921,-0.6923,-0.6925,-0.6928,-0.6871,-0.6923,-0.6923,-0.6923,-0.6923,-0.6923,0,-0.6852,-0.6854,-0.6866,-0.6877,-0.6887,-0.6876,-0.6883,-0.6893,-0.6908,-0.6913,-0.6923,-0.694,-0.6953,-0.6953,-0.6965,-0.6976,-0.6972,-0.6979,-0.6979,-0.698,-0.6935,-0.693,-0.6982,-0.6982,-0.6982,-0.6982,-0.6982,-0.6982,-0.6883,-0.6906,-0.6903,-0.6928,-0.693,-0.6946,-0.6951,-0.6957,-0.6962,-0.6981,-0.6991,-0.6991,-0.6994,-0.7006,-0.7018,-0.7017,-0.7023,-0.7033,-0.7031,-0.6989,-0.6983,-0.6978,-0.6972,-0.7033,-0.7034,-0.7075,-0.7075,-0.7075]}]]